Main page
METAR-TAF:

METAR-TAF

Airports :

Crystal River Airport

Crystal River, Florida, United States

latitude: 28-52-02N, longitude: 082-34-17W, elevation: 10 ft

Current weather observation

The report was made 9 minutes ago, at 02:35 UTC
Wind 6 mph from the East
Temperature 77°F
Humidity 74%
Pressure 30.05 in. Hg
Visibility: 10 miles
Scattered clouds at a height of 3500 ft
Scattered clouds at a height of 5000 ft

METAR: KCGC 260235Z AUTO 10005KT 10SM SCT035 SCT050 25/20 A3005 RMK AO2

Time: 22:44 (02:44 UTC)


TAF: missing

Weather observations and forecasts of more than 4000 airports (METAR and TAF reports).

The available stations are represented by yellow and red dots on the map.

Hover mouse over dot to see the name of the station.

Then click to see weather observations and forecasts.

To change the map : click on the green buttons with a black cross to zoom in, on the green button with a dash to zoom out, or on the green arrows for adjacent maps.


METAR-TAF: